This demonstration page uses our WeatherBlox Daily Observations layout. Learn more.

Left ArrowRight Arrow

Hourly Observations for March 19, 2021

Temp ( °F °C ) Dew Point ( °F °C ) Humidity (%) Winds ( mph kmh ) Pressure ( in mb ) Visibility ( mi km ) Precip ( " mm )
12:15 am 00:15 Clear 32 -0.1 29 -1.6 90 90 N 3 6 30.50 1033 10 16 N/A
12:35 am 00:35 Clear 32 undefined 29 -1.4 90 90 NNE 5 7 30.50 1033 10 16 N/A
12:55 am 00:55 Clear 31 -0.6 28 -2.1 90 90 NNE 6 9 30.50 1033 10 16 N/A
1:15 am 01:15 Clear 31 -0.8 28 -2.1 91 91 NE 6 9 30.50 1033 10 16 N/A
1:35 am 01:35 Clear 31 -0.3 29 -1.7 90 90 ENE 7 11 30.50 1033 10 16 N/A
1:55 am 01:55 Clear 30 -1 28 -2.5 90 90 ENE 6 9 30.51 1033 10 16 N/A
2:15 am 02:15 Clear 31 -0.7 28 -2.1 90 90 ENE 6 9 30.50 1033 10 16 N/A
2:35 am 02:35 Clear 30 -1 28 -2.1 92 92 ENE 6 9 30.51 1033 10 16 N/A
2:55 am 02:55 Clear 29 -1.6 27 -2.7 92 92 E 6 9 30.51 1033 10 16 N/A
3:15 am 03:15 Clear 31 -0.3 28 -2 88 88 E 5 7 30.50 1033 10 16 N/A
3:35 am 03:35 Clear 31 -0.8 27 -2.6 88 88 E 5 7 30.50 1033 10 16 N/A
3:55 am 03:55 Clear 30 -1 27 -2.6 89 89 E 5 7 30.51 1033 10 16 N/A
4:15 am 04:15 Clear 30 -1.1 27 -2.6 90 90 ESE 5 7 30.50 1033 10 16 N/A
4:35 am 04:35 Clear 29 -1.5 27 -3 90 90 ESE 5 7 30.50 1033 10 16 N/A
4:55 am 04:55 Clear 29 -1.6 27 -3 90 90 ESE 5 7 30.50 1033 10 16 N/A
5:15 am 05:15 Clear 29 -1.7 26 -3.1 90 90 SE 5 7 30.50 1033 10 16 N/A
5:35 am 05:35 Clear 29 -1.6 27 -2.8 92 92 SE 3 6 30.50 1033 10 16 N/A
5:55 am 05:55 Clear 28 -2 26 -3.2 92 92 SE 3 6 30.51 1033 10 16 N/A
6:15 am 06:15 Clear 29 -1.6 27 -2.6 93 93 N N/A 30.51 1033 10 16 N/A
6:35 am 06:35 Clear 29 -1.8 27 -3 92 92 SSE 3 6 30.51 1033 10 16 N/A
6:55 am 06:55 Clear 29 -1.7 27 -2.8 92 92 SSE 3 6 30.51 1033 10 16 N/A
7:15 am 07:15 Clear 28 -2 26 -3.3 91 91 SSE 3 6 30.51 1033 10 16 N/A
7:35 am 07:35 Clear 28 -2.5 26 -3.5 93 93 SSE 3 6 30.52 1034 10 16 N/A
7:55 am 07:55 Sunny 28 -2.3 26 -3.4 92 92 SSE 5 7 30.52 1033 10 16 N/A
8:15 am 08:15 Sunny 29 -1.6 27 -2.7 92 92 N N/A 30.51 1033 10 16 N/A
8:35 am 08:35 Sunny 30 -1.1 28 -2.4 91 91 SSE 5 7 30.51 1033 10 16 N/A
8:55 am 08:55 Sunny 32 undefined 29 -1.5 90 90 SSE 5 7 30.50 1033 10 16 N/A
9:15 am 09:15 Sunny 33 0.8 31 -0.8 89 89 S 7 11 30.50 1033 10 16 N/A
9:35 am 09:35 Sunny 35 1.8 31 -0.5 85 85 S 9 15 30.49 1032 10 16 N/A
9:55 am 09:55 Sunny 37 2.7 32 -0.1 82 82 S 10 17 30.49 1033 10 16 N/A
10:15 am 10:15 Sunny 38 3.6 32 undefined 78 78 S 9 15 30.47 1032 10 16 N/A
10:35 am 10:35 Sunny 40 4.6 32 undefined 72 72 S 15 24 30.47 1032 10 16 N/A
10:55 am 10:55 Sunny 42 5.5 32 undefined 68 68 SSW 12 19 30.45 1031 10 16 N/A
11:15 am 11:15 Sunny 43 6.1 32 0.1 66 66 S 15 24 30.45 1031 10 16 N/A
11:35 am 11:35 Sunny 44 6.6 32 undefined 63 63 S 15 24 30.43 1031 10 16 N/A
11:55 am 11:55 Sunny 45 7.3 33 0.3 61 61 S 12 19 30.43 1030 10 16 N/A
12:15 pm 12:15 Sunny 46 7.8 32 0.1 59 59 S 14 22 30.42 1030 10 16 N/A
12:35 pm 12:35 Sunny 47 8.5 32 undefined 55 55 S 15 24 30.41 1030 10 16 N/A
12:55 pm 12:55 Sunny 49 9.2 32 0.2 54 54 S 12 19 30.39 1029 10 16 N/A
1:15 pm 13:15 Sunny 50 9.8 32 0.1 51 51 SSW 14 22 30.37 1029 10 16 N/A
1:35 pm 13:35 Sunny 50 10.1 32 0.1 50 50 SSW 13 20 30.36 1028 10 16 N/A
1:55 pm 13:55 Sunny 51 10.4 32 0.2 50 50 S 14 22 30.35 1028 10 16 N/A
2:15 pm 14:15 Sunny 51 10.6 32 0.1 49 49 S 14 22 30.34 1027 10 16 N/A
2:35 pm 14:35 Sunny 52 11.2 33 0.4 48 48 S 13 20 30.32 1027 10 16 N/A
2:55 pm 14:55 Sunny 53 11.6 32 0.1 45 45 S 10 17 30.30 1026 10 16 N/A
3:15 pm 15:15 Sunny 53 11.8 32 undefined 45 45 S 16 26 30.29 1026 10 16 N/A
3:35 pm 15:35 Sunny 54 12.2 32 undefined 43 43 SSE 15 24 30.27 1025 10 16 N/A
3:55 pm 15:55 Sunny 55 12.5 31 -0.3 42 42 S 15 24 30.27 1025 10 16 N/A
4:15 pm 16:15 Sunny 55 12.6 32 -0.1 42 42 S 16 26 30.26 1025 10 16 N/A
4:35 pm 16:35 Sunny 55 12.7 32 undefined 42 42 S 20 31 30.25 1024 10 16 N/A
4:55 pm 16:55 Sunny 55 12.9 32 undefined 41 41 S 20 31 30.25 1024 10 16 N/A
5:15 pm 17:15 Sunny 55 12.8 31 -0.3 41 41 S 13 20 30.25 1024 10 16 N/A
5:35 pm 17:35 Sunny 55 12.8 31 -0.5 40 40 S 14 22 30.24 1024 10 16 N/A
5:55 pm 17:55 Sunny 55 12.8 31 -0.4 40 40 S 16 26 30.23 1024 10 16 N/A
6:15 pm 18:15 Sunny 55 12.7 31 -0.4 41 41 S 15 24 30.23 1024 10 16 N/A
6:35 pm 18:35 Sunny 55 12.5 31 -0.3 42 42 S 16 26 30.23 1024 10 16 N/A
6:55 pm 18:55 Sunny 54 12.1 32 -0.2 43 43 S 15 24 30.23 1024 10 16 N/A
7:15 pm 19:15 Sunny 53 11.6 32 -0.1 45 45 S 12 19 30.24 1024 10 16 N/A
7:35 pm 19:35 Sunny 51 10.6 32 undefined 48 48 S 10 17 30.25 1024 10 16 N/A
7:55 pm 19:55 Clear 49 9.4 32 undefined 52 52 SSE 8 13 30.27 1025 10 16 N/A
8:15 pm 20:15 Clear 47 8.3 32 0.1 57 57 SSE 7 11 30.27 1025 10 16 N/A
8:35 pm 20:35 Clear 44 6.7 32 0.1 63 63 SSE 6 9 30.29 1026 10 16 N/A
8:55 pm 20:55 Clear 43 6.1 32 0.1 66 66 SSE 9 15 30.29 1026 10 16 N/A
9:15 pm 21:15 Clear 42 5.8 32 0.1 67 67 SSE 10 17 30.30 1026 10 16 N/A
9:35 pm 21:35 Clear 42 5.7 32 undefined 67 67 SSE 10 17 30.30 1026 10 16 N/A
9:55 pm 21:55 Clear 42 5.5 32 undefined 68 68 SSE 9 15 30.30 1026 10 16 N/A
10:15 pm 22:15 Clear 41 5.1 32 undefined 70 70 SSE 9 15 30.31 1026 10 16 N/A
10:35 pm 22:35 Clear 40 4.7 32 undefined 72 72 SSE 9 15 30.32 1027 10 16 N/A
10:55 pm 22:55 Clear 40 4.7 32 undefined 72 72 SSE 10 17 30.32 1027 10 16 N/A
11:15 pm 23:15 Clear 41 5 32 undefined 70 70 SSE 9 15 30.32 1027 10 16 N/A
11:35 pm 23:35 Clear 39 4.1 32 -0.1 74 74 SSE 8 13 30.33 1027 10 16 N/A
11:55 pm 23:55 Clear 39 3.7 32 -0.2 76 76 SSE 8 13 30.33 1027 10 16 N/A

Powered by AerisWeather